Date,TemperatureHighF,TemperatureAvgF,TemperatureLowF,DewpointHighF,DewpointAvgF,DewpointLowF,HumidityHigh,HumidityAvg,HumidityLow,PressureMaxIn,PressureMinIn,WindSpeedMaxMPH,WindSpeedAvgMPH,GustSpeedMaxMPH,PrecipitationSumIn
2013-5-1,72.8,56.6,42.1,58.0,48.7,37.0,93,76,50,30.25,29.91,12,4,17,0.00
2013-5-2,65.2,48.7,37.6,49.0,41.0,36.0,92,76,47,30.28,30.17,10,3,15,0.00
2013-5-3,64.7,53.3,40.2,45.0,41.5,37.0,92,67,45,30.18,30.11,14,4,22,0.00
2013-5-4,67.5,56.1,43.5,49.0,43.7,39.0,89,65,47,30.15,30.12,18,4,18,0.00
2013-5-5,71.0,55.4,37.1,46.0,38.3,32.0,93,59,24,30.15,30.06,10,3,13,0.00
2013-5-6,73.1,53.2,36.8,46.0,38.8,33.0,92,65,23,30.10,30.05,7,1,12,0.00
2013-5-7,67.7,51.6,45.8,33.0,22.2,-99.9,60,38,23,30.04,0.00,5,-55,10,0.00
2013-5-8,74.5,57.7,37.8,45.0,36.6,30.0,80,50,25,30.05,29.95,8,2,12,0.00
2013-5-9,70.1,57.5,43.4,50.0,43.0,36.0,78,60,41,30.05,29.91,7,2,19,0.00
2013-5-10,43.8,39.1,34.9,38.0,35.2,33.0,93,86,69,30.06,29.93,9,3,15,0.37
2013-5-11,51.6,38.5,30.7,38.0,33.5,29.0,93,84,55,29.93,29.66,9,2,17,0.26
2013-5-12,35.5,32.7,30.6,33.0,30.3,28.0,94,91,85,30.00,29.61,21,7,27,0.19
2013-5-13,49.7,38.8,27.1,32.0,27.7,24.0,93,67,41,30.11,29.99,12,3,18,0.07
2013-5-14,49.0,42.3,36.1,40.0,36.8,31.0,90,81,70,30.04,29.70,16,6,28,0.02
2013-5-15,69.9,54.5,40.0,50.0,41.1,36.0,92,66,29,29.70,29.48,15,6,34,0.00
2013-5-16,59.2,50.6,41.6,42.0,38.9,37.0,87,65,49,30.07,29.70,14,4,21,0.00
2013-5-17,60.4,50.5,37.3,42.0,38.0,35.0,93,65,43,30.22,30.08,10,3,15,0.00
2013-5-18,62.3,51.3,37.2,44.0,40.2,35.0,92,68,44,30.23,30.07,14,4,18,0.00
2013-5-19,75.5,59.1,50.3,55.0,47.1,42.0,80,66,47,30.07,29.88,8,4,12,0.01
2013-5-20,63.0,58.0,53.0,57.0,53.3,50.0,92,85,74,29.92,29.75,21,6,24,0.44
2013-5-21,56.5,53.6,51.3,54.0,51.6,49.0,93,93,92,29.83,29.69,15,5,21,1.19
2013-5-22,57.0,54.3,52.0,55.0,52.4,50.0,94,93,90,29.74,29.68,7,2,13,0.25
2013-5-23,52.5,45.6,38.6,50.0,37.2,30.0,93,74,51,30.24,29.75,15,5,20,0.40
2013-5-24,55.3,43.5,32.0,36.0,30.7,27.0,83,62,45,30.38,30.24,10,3,17,0.00
2013-5-25,61.4,48.2,34.3,39.0,34.3,31.0,92,62,34,30.45,30.30,7,3,17,0.00
2013-5-26,63.0,51.1,33.7,42.0,34.8,32.0,93,58,33,30.38,30.22,9,2,13,0.00
2013-5-27,66.7,52.8,33.2,42.0,34.0,29.0,93,55,27,30.25,30.04,15,3,15,0.00
2013-5-28,52.7,49.6,44.0,49.0,43.7,33.0,93,81,56,30.04,29.77,15,5,22,0.34
2013-5-29,63.9,55.4,48.1,58.0,52.6,46.0,94,90,79,29.93,29.74,9,2,17,0.00
2013-5-30,80.3,63.5,50.5,67.0,57.9,49.0,94,83,63,29.95,29.84,9,3,14,0.00
2013-5-31,76.6,68.5,60.3,65.0,62.8,58.0,91,82,66,29.85,29.73,10,3,19,0.06